QUETZAL-1 (45598 NORAD) Tracking and Keplerian Element Data

This shows tracking and keplerian element data for the satellite.

Feedback or suggestion? Click here.




ElementValue
Catalog45598
NameQUETZAL-1
Epoch Orbit1074
Epoch Day188.46492231
Epoch Year2020
RAAN252.6714
Inclination51.6415
Eccentricity0.0002925
Argument of Perigee148.1844
Mean Anonmoly211.9322
Mean Motion15.50500148
Decay Rate4.574E-05
L11 45598U 98067RL 20188.46492231 .00004574 00000-0 86565-4 0 9995
L22 45598 51.6415 252.6714 0002925 148.1844 211.9322 15.50500148 10741

Live tracking and technical data element details for QUETZAL-1 (NORAD 45598). QUETZAL-1 can be tracked NOW for your location showing map with azimuth and elevation plus other details from your city location.

Track the satellite on the map from your city or location and see movement details for azimuth, elevation, latitude, longitude, range, height, and movement on the map or in text.







IsCatalogInMostPopularTable: catalog: 45598, numindb: 17
Update: records affected: 1



GetName: 45598 QUETZAL-1

Hit Count: updated at: Wed, 08 Jul 2020 04:05:15 GMT